格洛纳斯M-753 COSMOS 2516 [GLONASS-M]

导读

COSMOS 2516是独联体(CIS)俄罗斯于2016年5月29日发射的GLONASS全球卫星导航系统新一代导航卫星,属于格洛纳斯系统空间星座组网卫星。它运行于约19100公里高度的中地球轨道,轨道倾角64.8度,运行周期11小时15分,主要为全球用户提供高精度定位、导航与授时服务,补充完善GLONASS星座覆盖能力,提升系统服务稳定性与定位精度,支撑军民两用导航需求。

Basic Information
目录编号:
41554
目录名称:
COSMOS 2516 (GLONASS)
国际标识:
2016-032A
轨道中心:
EARTH
卫星名称:
格洛纳斯M-753
卫星全名:
格洛纳斯M-753 COSMOS 2516 [GLONASS-M]
卫星状态:
在轨 (已飞行3670 天)
发射日期:
2016-05-29 UTC
国别 :
俄罗斯(独联体) (CIS)
星等 :
--
Orbit Information
数据来源 国际轨道数据 AOE轨道数据
星历时间 2026-06-15T19:54:28+0800
1天前
查看轨道信息
2026-06-16T08:00:00+0800
14小时前
查看轨道信息
半长轴 25507.666km 25507.674km
偏心率 0.0018116 0.0018186
轨道倾角 63.844° 63.844°
近地点辐角 214.916° 214.944°
升交点赤经 191.118° 191.101°
平近点角 145.028° 171.542°
近地点 19083.319km 19083.148km
远地点 19175.739km 19175.926km
周期 675.718分钟 675.719分钟
每日圈数 2.131065 2.131064
Detailed Information
平衡模式:
三轴稳定
覆盖范围:
全球
运营商:
列舍特涅夫卫星信息系统
运营商所在国:
俄罗斯
制造商(研发单位):
列舍特涅夫卫星信息系统
制造商所在国:
俄罗斯
使用方式:
暂无
Satellite Introduction
格洛纳斯(GLONASS )是苏联/俄罗斯研制卫星导航系统。标准配置为24颗卫星,其中18颗卫星就能保证该系统为俄罗斯境内用户提供全部服务。该卫星已退役。
2D Orbit Map
3D Orbit Map
Orbit Altitude Analysis Chart
Orbit Inclination Analysis Chart
Orbit Comprehensive Analysis Chart
View Comprehensive Chart